カタログに戻る

STARLINK-11277

運用中通信VLEO
NORAD 61205·PAYLOAD·🇺🇸 United States

打ち上げ Sep 20, 2024 から Vandenberg Space Force Base

Loading…

次のパス (今後24時間)

TLE

最新Source: CelesTrak SupGP

元期: Sep 15, 2026, 02:37 UTC

1 61205C 24171F   26258.10951389  .00045494  00000+0  37476-3 0  2581
2 61205  53.1567 322.3367 0001306  90.6387 186.2032 15.69685331    12

AllMySatでSTARLINK-11277をリアルタイム追跡

Download on the App Store